[[{"header":{"parameterUnit":"m.s-1","parameterCategory":2,"la1":30.2991,"la2":30.254,"lo1":-89.0895,"lo2":-89.0444,"dy":0.0017,"dx":0.0017,"nx":28,"ny":28,"refTime":"2023-09-05T21:00:00:Z","depth":"0","parameterNumber":2,"parameterNumberName":"U-component_of_CURRENTS"},"data":[0,0,0,0,0,0,0,0,0,0,0,0,0,0,0,0,0,0,0,0,0,0,0,0,0,0,0,0,0,0,0,0,0,0,0,0,0,0,0,0,0,0,0,0,0,0,0,0,0,0,0,0,0,0,0,0,0,0,-0.1922,-0.1923,0,-0.197,-0.197,-0.197,-0.1962,-0.1961,-0.196,-0.196,-0.1927,-0.1927,-0.1927,0,0,0,0,0,0,0,0,0,0,0,0,0,-0.1811,-0.1813,-0.1922,-0.1923,-0.1924,-0.197,-0.197,-0.1971,-0.1962,-0.1961,-0.196,-0.196,-0.1927,-0.1927,-0.1927,0,0,0,0,0,0,0,0,0,0,0,0,0,-0.1856,-0.1813,-0.1922,-0.1927,-0.1928,-0.197,-0.197,-0.1971,-0.1962,-0.1961,-0.196,-0.1959,-0.1927,-0.1927,-0.1927,-0.1942,0,0,-0.1925,-0.1925,0,0,0,0,0,0,0,0,-0.1854,-0.186,-0.1925,-0.1927,-0.1928,-0.1961,-0.1919,-0.1958,-0.1962,-0.1946,-0.196,-0.1959,-0.1933,-0.1933,-0.1941,-0.1941,-0.1939,-0.1925,-0.1925,-0.1925,-0.1925,0,0,0,0,0,0,0,-0.1851,-0.1858,-0.1938,-0.1926,-0.1928,-0.1923,-0.1928,-0.1927,-0.1941,-0.1948,-0.1948,-0.1957,-0.1933,-0.1941,-0.194,-0.1939,-0.1925,-0.1925,-0.1925,-0.1924,-0.195,-0.1951,0,0,0,0,0,0,-0.1852,-0.1855,-0.1937,-0.194,-0.1891,-0.1926,-0.1931,-0.1949,-0.1943,-0.1942,-0.1958,-0.1957,-0.1943,-0.194,-0.1939,-0.1956,-0.1925,-0.1924,-0.1924,-0.1949,-0.195,-0.1951,0,0,0,0,0,0,-0.185,-0.1859,-0.1935,-0.19,-0.191,-0.1929,-0.1949,-0.1951,-0.1961,-0.1952,-0.1949,-0.1966,-0.1942,-0.1939,-0.1948,-0.1954,-0.1924,-0.1924,-0.1948,-0.195,-0.1951,-0.199,0,0,0,0,0,0,-0.1847,-0.1858,-0.187,-0.1901,-0.1912,-0.1971,-0.195,-0.1952,-0.1969,-0.1968,-0.1958,-0.1954,-0.1941,-0.1949,-0.1948,-0.1953,-0.1923,-0.1947,-0.1949,-0.195,-0.1987,-0.1993,-0.1997,0,0,0,0,0,-0.1843,-0.187,-0.1871,-0.1881,-0.1929,-0.1972,-0.1978,-0.1985,-0.1971,-0.1987,-0.1979,-0.1955,-0.1959,-0.195,-0.1948,-0.1953,-0.1946,-0.1948,-0.195,-0.1985,-0.1992,-0.1997,0,0,0,0,0,0,-0.1835,-0.1873,-0.1874,-0.1913,-0.1943,-0.1972,-0.1986,-0.199,-0.1998,-0.199,-0.1972,-0.1969,-0.1977,-0.1966,-0.1956,-0.1967,-0.1947,-0.1948,-0.1974,-0.198,-0.1984,-0.1994,-0.1923,0,0,0,0,0,-0.1838,-0.1859,-0.19,-0.1927,-0.1944,-0.1963,-0.1979,-0.1989,-0.2002,-0.2005,-0.1998,-0.1989,-0.1987,-0.1984,-0.1982,-0.1992,-0.1983,-0.1993,-0.1997,-0.2001,-0.2009,-0.2018,-0.2024,-0.1958,-0.1958,-0.1958,0,0,-0.1841,-0.1863,-0.1876,-0.1925,-0.1942,-0.1979,-0.197,-0.2002,-0.2026,-0.1999,-0.2018,-0.2007,-0.1995,-0.2005,-0.2007,-0.1994,-0.2013,-0.2004,-0.2007,-0.2013,-0.2021,-0.2027,-0.2033,-0.196,-0.196,-0.1959,0,0,-0.186,-0.188,-0.1905,-0.1934,-0.1972,-0.199,-0.2001,-0.2036,-0.2043,-0.2066,-0.2049,-0.2048,-0.2045,-0.2042,-0.2036,-0.2068,-0.204,-0.2061,-0.209,-0.2098,-0.2103,-0.2108,-0.2094,-0.2098,-0.2061,-0.2061,-0.2061,0,-0.1861,-0.1896,-0.192,-0.1956,-0.1978,-0.1996,-0.2032,-0.2054,-0.2084,-0.2097,-0.2075,-0.2085,-0.2063,-0.2083,-0.2084,-0.2078,-0.2073,-0.2067,-0.2104,-0.2108,-0.2112,-0.2097,-0.2101,-0.2063,-0.2063,-0.2063,-0.2062,0,-0.1904,-0.1928,-0.1947,-0.1991,-0.2026,-0.2056,-0.2095,-0.2123,-0.2123,-0.2141,-0.2162,-0.2143,-0.2145,-0.2136,-0.2112,-0.2135,-0.2117,-0.211,-0.2088,-0.2121,-0.2103,-0.2106,-0.2066,-0.2065,-0.2065,-0.2064,0,0,-0.1903,-0.1962,-0.1965,-0.1997,-0.2041,-0.2088,-0.2122,-0.2172,-0.2213,-0.2215,-0.2251,-0.2231,-0.2218,-0.2212,-0.2188,-0.2189,-0.2193,-0.2158,-0.2158,-0.2143,-0.2199,-0.2143,-0.214,-0.2194,-0.2195,-0.2196,-0.217,0,-0.1918,-0.1986,-0.2006,-0.2071,-0.2113,-0.2141,-0.2187,-0.2236,-0.2257,-0.23,-0.2281,-0.23,-0.2249,-0.2245,-0.2239,-0.221,-0.2203,-0.2199,-0.2171,-0.217,-0.2115,-0.2143,-0.2055,-0.2022,-0.2172,-0.2173,-0.2173,0,-0.1943,-0.1988,-0.2046,-0.2128,-0.2151,-0.2192,-0.2275,-0.2317,-0.2372,-0.2383,-0.2391,-0.2382,-0.2371,-0.2325,-0.2292,-0.2293,-0.2246,-0.2221,-0.2219,-0.2157,-0.212,-0.2016,-0.202,-0.2001,-0.2176,-0.2176,-0.2176,0,-0.1939,-0.2016,-0.2061,-0.2087,-0.2182,-0.2217,-0.2267,-0.2339,-0.2377,-0.2429,-0.2444,-0.2453,-0.2428,-0.2401,-0.231,-0.231,-0.2271,-0.2267,-0.2177,-0.2172,-0.2086,-0.2072,-0.2067,-0.2252,-0.2252,-0.2252,-0.2252,0,-0.1939,-0.1982,-0.2069,-0.21,-0.2178,-0.2243,-0.2317,-0.2368,-0.2429,-0.2446,-0.2475,-0.2462,-0.2444,-0.2405,-0.2345,-0.2253,-0.2291,-0.2188,-0.2168,-0.2095,-0.2083,-0.2053,-0.2071,-0.2251,-0.2251,-0.2251,-0.2251,0,-0.191,-0.1961,-0.2031,-0.2135,-0.2171,-0.2229,-0.2323,-0.2374,-0.2434,-0.2448,-0.2453,-0.2467,-0.2411,-0.2386,-0.2328,-0.2273,-0.2174,-0.2169,-0.2071,-0.2041,-0.1958,-0.1982,-0.1956,-0.1906,-0.2094,-0.2092,-0.2091,0,-0.1894,-0.1924,-0.204,-0.2075,-0.2112,-0.22,-0.225,-0.235,-0.2375,-0.241,-0.2393,-0.2382,-0.2311,-0.2243,-0.2177,-0.2105,-0.2092,-0.1988,-0.1978,-0.1946,-0.196,-0.197,-0.193,-0.1874,-0.1871,-0.1869,-0.1867,0,-0.1852,-0.189,-0.1942,-0.2012,-0.2071,-0.2137,-0.22,-0.2216,-0.2283,-0.2286,-0.2227,-0.2187,-0.2148,-0.2041,-0.1996,-0.1935,-0.1951,-0.1937,-0.1935,-0.1818,-0.1798,-0.1741,-0.189,-0.1846,-0.1848,-0.185,-0.1851,-0.1852,-0.1799,-0.1816,-0.187,-0.1927,-0.1992,-0.2006,-0.198,-0.2031,-0.2019,-0.196,-0.2013,-0.1934,-0.1933,-0.1859,-0.1814,-0.1737,-0.1783,-0.1687,-0.1725,-0.1744,-0.1679,-0.1775,-0.1694,-0.1695,-0.1696,-0.1697,-0.1697,0,-0.1713,-0.1732,-0.1777,-0.1819,-0.1822,-0.1894,-0.189,-0.1818,-0.1715,-0.1754,-0.1694,-0.1693,-0.1626,-0.1653,-0.1609,-0.1547,-0.1515,-0.1515,-0.1515,-0.1489,-0.1588,-0.1561,-0.1409,-0.1409,-0.1409,-0.1409,-0.141,-0.141,-0.1662,-0.1657,-0.1677,-0.1629,-0.1642,-0.1548,-0.1492,-0.141,-0.1393,-0.1322,-0.1352,-0.143,-0.1483,-0.1614,-0.1542,-0.1472,-0.1444,-0.139,-0.1422,-0.1504,-0.1524,-0.1542,-0.152,-0.1363,-0.1363,-0.1252,-0.1252,-0.1251]},{"header":{"parameterUnit":"m.s-1","parameterCategory":2,"la1":30.2991,"la2":30.254,"lo1":-89.0895,"lo2":-89.0444,"dy":0.0017,"dx":0.0017,"nx":28,"ny":28,"refTime":"2023-09-05T21:00:00:Z","depth":"0","parameterNumber":3,"parameterNumberName":"V-component_of_CURRENTS"},"data":[0,0,0,0,0,0,0,0,0,0,0,0,0,0,0,0,0,0,0,0,0,0,0,0,0,0,0,0,0,0,0,0,0,0,0,0,0,0,0,0,0,0,0,0,0,0,0,0,0,0,0,0,0,0,0,0,0,0,0.0074,0.0075,0,0.0161,0.0162,0.0163,0.0215,0.0215,0.0215,0.0215,0.0299,0.0301,0.0303,0,0,0,0,0,0,0,0,0,0,0,0,0,0.0018,0.0018,0.0074,0.0075,0.0076,0.0161,0.0162,0.0163,0.0215,0.0215,0.0215,0.0216,0.0298,0.03,0.0303,0,0,0,0,0,0,0,0,0,0,0,0,0,0.0066,0.0018,0.0074,0.0113,0.0117,0.0161,0.0162,0.0164,0.0214,0.0215,0.0215,0.0216,0.0297,0.03,0.0303,0.0313,0,0,0.0312,0.0313,0,0,0,0,0,0,0,0,0.0064,0.0068,0.0106,0.011,0.0115,0.0178,0.0173,0.0214,0.0214,0.0177,0.0215,0.0216,0.0258,0.0264,0.0279,0.0317,0.032,0.0312,0.0314,0.0315,0.0316,0,0,0,0,0,0,0,0.006,0.0065,0.0108,0.0107,0.0113,0.0148,0.0155,0.0181,0.0213,0.018,0.0184,0.0195,0.0261,0.0276,0.0281,0.0321,0.0312,0.0315,0.0317,0.0318,0.0406,0.0406,0,0,0,0,0,0,0.0047,0.0062,0.0105,0.0111,0.0091,0.0149,0.0156,0.0157,0.0213,0.0223,0.0194,0.0197,0.0271,0.0278,0.0284,0.0308,0.0315,0.0318,0.032,0.0405,0.0406,0.0406,0,0,0,0,0,0,0.0045,0.0049,0.0102,0.0089,0.0099,0.0149,0.0149,0.0158,0.0174,0.0224,0.0234,0.02,0.0271,0.028,0.0315,0.0311,0.0319,0.0322,0.0404,0.0405,0.0406,0.0349,0,0,0,0,0,0,0.0043,0.0048,0.0038,0.0088,0.0099,0.0119,0.0149,0.016,0.018,0.0184,0.0233,0.0241,0.0272,0.031,0.0318,0.0315,0.0324,0.0404,0.0405,0.0406,0.035,0.0348,0.0346,0,0,0,0,0,0.004,0.002,0.0037,0.0042,0.0085,0.0119,0.0127,0.0165,0.018,0.0181,0.0223,0.0239,0.0323,0.0313,0.0322,0.032,0.0403,0.0404,0.0406,0.0351,0.0348,0.0346,0,0,0,0,0,0,-0.0014,0.0025,0.0044,0.0036,0.0073,0.0127,0.0128,0.0159,0.0193,0.0196,0.0245,0.0256,0.0288,0.0314,0.0302,0.0351,0.0366,0.0369,0.0322,0.0319,0.0317,0.0298,0.0327,0,0,0,0,0,-0.0029,-0.0034,0.0017,0.0009,0.0024,0.0076,0.0092,0.0121,0.0162,0.0177,0.0216,0.0259,0.03,0.0316,0.0355,0.0375,0.0396,0.0382,0.038,0.0378,0.037,0.039,0.0388,0.0411,0.0411,0.041,0,0,-0.0053,-0.0032,-0.0035,-0.0002,0.0027,0.0043,0.0086,0.0106,0.0123,0.018,0.0206,0.0252,0.0306,0.0336,0.0352,0.0355,0.0388,0.0379,0.0377,0.0371,0.0391,0.0388,0.0386,0.0411,0.0411,0.0411,0,0,-0.01,-0.0084,-0.0098,-0.0072,-0.0031,0.0008,0.0011,0.0066,0.0093,0.0128,0.0179,0.0223,0.0275,0.0319,0.0347,0.0355,0.0378,0.0366,0.0333,0.0352,0.035,0.0348,0.0386,0.0388,0.0361,0.036,0.036,0,-0.0128,-0.014,-0.0097,-0.0098,-0.0083,-0.0012,-0.0015,0.0025,0.0086,0.0106,0.0126,0.0221,0.0268,0.0313,0.0323,0.0348,0.0365,0.0334,0.0346,0.0345,0.0344,0.0383,0.0386,0.0358,0.0358,0.0358,0.0359,0,-0.0179,-0.0184,-0.0191,-0.0167,-0.0142,-0.0137,-0.007,-0.0043,0.0001,0.0046,0.0099,0.0171,0.0224,0.0252,0.0292,0.0314,0.0333,0.0341,0.0344,0.0337,0.0381,0.0385,0.0354,0.0355,0.0356,0.0356,0,0,-0.024,-0.0232,-0.0231,-0.024,-0.0181,-0.017,-0.0135,-0.0085,-0.0076,-0.0001,0.0018,0.0111,0.0152,0.0188,0.0246,0.0271,0.0294,0.0296,0.0298,0.0319,0.0343,0.0389,0.0398,0.0293,0.0293,0.0293,0.0381,0,-0.0288,-0.0328,-0.0293,-0.0312,-0.0323,-0.025,-0.0228,-0.0172,-0.0116,-0.0079,0.0015,0.006,0.0128,0.0151,0.0189,0.0272,0.0299,0.0271,0.036,0.0364,0.0391,0.0402,0.0433,0.0515,0.0385,0.0385,0.0386,0,-0.0336,-0.036,-0.0399,-0.0398,-0.0394,-0.0384,-0.0344,-0.0312,-0.0227,-0.0184,-0.0113,-0.0041,0.0045,0.0085,0.0212,0.0187,0.0256,0.0316,0.0321,0.0382,0.0415,0.0501,0.0528,0.0653,0.0392,0.0392,0.0391,0,-0.0405,-0.0425,-0.0468,-0.0467,-0.0449,-0.0446,-0.042,-0.0347,-0.0329,-0.0244,-0.022,-0.0114,-0.0057,0.0041,0.0198,0.0193,0.0326,0.0334,0.0442,0.0447,0.0502,0.0512,0.0646,0.0396,0.0396,0.0396,0.0395,0,-0.0465,-0.0496,-0.0511,-0.0536,-0.0584,-0.0525,-0.054,-0.0496,-0.0431,-0.0406,-0.028,-0.0232,-0.0073,0.0039,0.0167,0.0333,0.0307,0.0441,0.0469,0.0487,0.0494,0.0629,0.0678,0.0399,0.0398,0.0398,0.0397,0,-0.0523,-0.0533,-0.0593,-0.0611,-0.062,-0.0647,-0.0627,-0.063,-0.0548,-0.0509,-0.0481,-0.0328,-0.0161,0.001,0.0184,0.0295,0.0529,0.0503,0.053,0.0559,0.0767,0.0811,0.0958,0.1032,0.0629,0.0631,0.0632,0,-0.0556,-0.0595,-0.0666,-0.0717,-0.0727,-0.0754,-0.0767,-0.0699,-0.0691,-0.0552,-0.0542,-0.0371,-0.0223,0.0069,0.0291,0.0523,0.0609,0.0663,0.0659,0.079,0.086,0.0879,0.0931,0.0722,0.0724,0.0725,0.0727,0,-0.0622,-0.0649,-0.0707,-0.0823,-0.0867,-0.0901,-0.0907,-0.0907,-0.0799,-0.0726,-0.0583,-0.0444,-0.0142,0.0155,0.0445,0.0577,0.0759,0.0702,0.0827,0.0936,0.0977,0.1057,0.0666,0.0741,0.0739,0.0738,0.0738,0.0737,-0.067,-0.0739,-0.0829,-0.0935,-0.099,-0.1017,-0.1005,-0.0972,-0.0908,-0.0741,-0.0624,-0.0367,0.0044,0.0479,0.0635,0.0945,0.0897,0.1024,0.1066,0.1074,0.1145,0.0795,0.0904,0.0904,0.0903,0.0903,0.0902,0,-0.0732,-0.0819,-0.0934,-0.1041,-0.1105,-0.1103,-0.1079,-0.1011,-0.0897,-0.0731,-0.0547,-0.0065,0.0341,0.0705,0.1149,0.1305,0.133,0.1369,0.1407,0.1442,0.1131,0.1136,0.1313,0.1313,0.1313,0.1313,0.1313,0.1312,-0.0773,-0.0904,-0.0979,-0.1121,-0.1173,-0.1157,-0.1113,-0.0985,-0.0838,-0.0505,-0.0224,-0.0009,0.0502,0.1229,0.1617,0.1639,0.1771,0.1744,0.1818,0.1609,0.158,0.1552,0.157,0.1834,0.1835,0.2114,0.2117,0.2119]}],[{"header":{"parameterUnit":"m.s-1","parameterCategory":2,"la1":30.2991,"la2":30.254,"lo1":-89.0895,"lo2":-89.0444,"dy":0.0017,"dx":0.0017,"nx":28,"ny":28,"refTime":"2023-09-05T21:00:00:Z","depth":"2","parameterNumber":2,"parameterNumberName":"U-component_of_CURRENTS"},"data":[0,0,0,0,0,0,0,0,0,0,0,0,0,0,0,0,0,0,0,0,0,0,0,0,0,0,0,0,0,0,0,0,0,0,0,0,0,0,0,0,0,0,0,0,0,0,0,0,0,0,0,0,0,0,0,0,0,0,-0.1729,-0.173,0,-0.1784,-0.1785,-0.1786,-0.1783,-0.1782,-0.1782,-0.1781,-0.1777,-0.1778,-0.1778,0,0,0,0,0,0,0,0,0,0,0,0,0,-0.163,-0.1632,-0.1729,-0.173,-0.1731,-0.1784,-0.1785,-0.1786,-0.1783,-0.1782,-0.1782,-0.1781,-0.1777,-0.1777,-0.1778,0,0,0,0,0,0,0,0,0,0,0,0,0,-0.1677,-0.1632,-0.1729,-0.1737,-0.1738,-0.1784,-0.1785,-0.1786,-0.1783,-0.1782,-0.1781,-0.178,-0.1777,-0.1777,-0.1778,-0.1805,0,0,-0.1781,-0.1781,0,0,0,0,0,0,0,0,-0.1675,-0.1681,-0.1735,-0.1736,-0.1738,-0.1776,-0.1749,-0.179,-0.1784,-0.1765,-0.1781,-0.178,-0.1773,-0.1774,-0.1786,-0.1805,-0.1804,-0.1781,-0.1781,-0.1782,-0.1782,0,0,0,0,0,0,0,-0.1671,-0.1679,-0.175,-0.1736,-0.1737,-0.174,-0.1745,-0.1757,-0.1773,-0.1767,-0.1767,-0.1775,-0.1773,-0.1786,-0.1786,-0.1804,-0.1781,-0.1782,-0.1782,-0.1782,-0.183,-0.1831,0,0,0,0,0,0,-0.1667,-0.1676,-0.1749,-0.1752,-0.1704,-0.1743,-0.1749,-0.1764,-0.1774,-0.1775,-0.1776,-0.1774,-0.1785,-0.1785,-0.1786,-0.1806,-0.1782,-0.1783,-0.1783,-0.183,-0.1831,-0.1831,0,0,0,0,0,0,-0.1665,-0.1674,-0.1746,-0.1715,-0.1724,-0.1745,-0.1763,-0.1766,-0.178,-0.1781,-0.1781,-0.1787,-0.1784,-0.1785,-0.1805,-0.1806,-0.1783,-0.1784,-0.1829,-0.183,-0.1831,-0.1855,0,0,0,0,0,0,-0.1662,-0.1673,-0.1687,-0.1715,-0.1726,-0.1778,-0.1765,-0.1768,-0.1787,-0.1786,-0.1791,-0.1789,-0.1783,-0.1804,-0.1805,-0.1807,-0.1784,-0.1828,-0.1829,-0.1831,-0.1853,-0.1856,-0.186,0,0,0,0,0,-0.1659,-0.1687,-0.1688,-0.1697,-0.1744,-0.1779,-0.1785,-0.1795,-0.1788,-0.1802,-0.1807,-0.1789,-0.1813,-0.1806,-0.1807,-0.1809,-0.1827,-0.1829,-0.1831,-0.1851,-0.1856,-0.1859,0,0,0,0,0,0,-0.1662,-0.1691,-0.1692,-0.173,-0.1752,-0.1779,-0.1797,-0.1801,-0.1818,-0.1818,-0.1809,-0.1809,-0.1826,-0.182,-0.1812,-0.1828,-0.1814,-0.1816,-0.1829,-0.1833,-0.1836,-0.1827,-0.1785,0,0,0,0,0,-0.1667,-0.1688,-0.1717,-0.1745,-0.1759,-0.1778,-0.1794,-0.1803,-0.182,-0.1827,-0.1831,-0.1833,-0.1837,-0.1837,-0.1846,-0.186,-0.1855,-0.186,-0.1863,-0.1866,-0.186,-0.1894,-0.19,-0.1837,-0.1837,-0.1837,0,0,-0.1676,-0.1694,-0.1707,-0.1746,-0.1763,-0.1788,-0.1785,-0.1817,-0.1831,-0.1824,-0.1848,-0.1853,-0.1847,-0.1862,-0.1867,-0.1854,-0.1875,-0.1868,-0.1871,-0.1863,-0.1897,-0.1903,-0.1908,-0.1838,-0.1838,-0.1838,0,0,-0.17,-0.172,-0.1743,-0.1763,-0.1794,-0.1806,-0.1815,-0.1848,-0.1855,-0.1884,-0.1876,-0.188,-0.1899,-0.1886,-0.1881,-0.1909,-0.1899,-0.1915,-0.1917,-0.195,-0.1956,-0.1961,-0.1934,-0.1936,-0.1909,-0.1909,-0.1909,0,-0.1708,-0.1737,-0.1756,-0.1782,-0.1796,-0.1812,-0.1836,-0.1853,-0.1886,-0.1894,-0.1893,-0.1921,-0.1903,-0.1911,-0.1907,-0.1913,-0.1923,-0.1901,-0.1955,-0.196,-0.1964,-0.1936,-0.1938,-0.1911,-0.191,-0.191,-0.191,0,-0.1745,-0.1766,-0.1784,-0.1811,-0.1834,-0.1859,-0.188,-0.19,-0.1908,-0.1923,-0.195,-0.1947,-0.196,-0.1949,-0.1928,-0.1949,-0.1941,-0.1962,-0.1944,-0.1972,-0.194,-0.1942,-0.1912,-0.1912,-0.1912,-0.1911,0,0,-0.1753,-0.1798,-0.1801,-0.1818,-0.1847,-0.1876,-0.1892,-0.1916,-0.1956,-0.1962,-0.2009,-0.1975,-0.1988,-0.1982,-0.1972,-0.1977,-0.1985,-0.1979,-0.198,-0.1948,-0.2033,-0.197,-0.1966,-0.2039,-0.204,-0.2041,-0.1987,0,-0.1766,-0.1815,-0.1829,-0.1868,-0.1892,-0.1904,-0.1933,-0.1958,-0.1992,-0.205,-0.2024,-0.2071,-0.2,-0.2029,-0.2017,-0.2017,-0.1998,-0.1995,-0.2013,-0.2011,-0.1951,-0.1969,-0.1829,-0.1766,-0.1988,-0.1989,-0.1989,0,-0.1784,-0.1814,-0.1855,-0.1903,-0.1919,-0.195,-0.2008,-0.2041,-0.2098,-0.213,-0.2152,-0.2167,-0.2143,-0.2119,-0.2077,-0.2092,-0.2049,-0.2032,-0.2031,-0.1966,-0.1954,-0.178,-0.1761,-0.1992,-0.1992,-0.1991,-0.1991,0,-0.1776,-0.1827,-0.1858,-0.1873,-0.1936,-0.1961,-0.1999,-0.2065,-0.211,-0.2199,-0.224,-0.225,-0.2247,-0.2227,-0.2118,-0.2132,-0.2087,-0.211,-0.1998,-0.1991,-0.1866,-0.1847,-0.2086,-0.2086,-0.2086,-0.2086,-0.2086,0,-0.1772,-0.1798,-0.1867,-0.1887,-0.1951,-0.1992,-0.2082,-0.2124,-0.2212,-0.2234,-0.2287,-0.2283,-0.2281,-0.2234,-0.2168,-0.2058,-0.2112,-0.1989,-0.1984,-0.1866,-0.1849,-0.205,-0.2047,-0.2084,-0.2085,-0.2085,-0.2085,0,-0.1747,-0.1789,-0.1835,-0.1912,-0.1949,-0.2,-0.2114,-0.2174,-0.2252,-0.2287,-0.2302,-0.2315,-0.2243,-0.2207,-0.2156,-0.2088,-0.2026,-0.1967,-0.1792,-0.1769,-0.1896,-0.1895,-0.1879,-0.1877,-0.1875,-0.1873,-0.1872,0,-0.1731,-0.1753,-0.1851,-0.1891,-0.1928,-0.2021,-0.208,-0.2185,-0.2222,-0.224,-0.2224,-0.2204,-0.2115,-0.2042,-0.1968,-0.1881,-0.1924,-0.1703,-0.1705,-0.1884,-0.1881,-0.1883,-0.1884,-0.1529,-0.1525,-0.1522,-0.1519,0,-0.1688,-0.1729,-0.1769,-0.1855,-0.1924,-0.1993,-0.2064,-0.2078,-0.2124,-0.2137,-0.2047,-0.1992,-0.1929,-0.1787,-0.1726,-0.1651,-0.1728,-0.1634,-0.1881,-0.1614,-0.1553,-0.1551,-0.1563,-0.1489,-0.1492,-0.1494,-0.1496,-0.1497,-0.1645,-0.1663,-0.1718,-0.1789,-0.1868,-0.1871,-0.1846,-0.1886,-0.1868,-0.1775,-0.1806,-0.169,-0.1693,-0.1537,-0.1447,-0.1405,-0.1519,-0.1459,-0.147,-0.1484,-0.1464,-0.1405,-0.1305,-0.1307,-0.1309,-0.131,-0.1311,0,-0.1556,-0.1585,-0.1645,-0.1696,-0.1714,-0.1788,-0.176,-0.1681,-0.1554,-0.1548,-0.1475,-0.1314,-0.1242,-0.1257,-0.1148,-0.1136,-0.1131,-0.1092,-0.1085,-0.1115,-0.1141,-0.1105,-0.085,-0.0849,-0.0847,-0.0846,0,0,-0.1506,-0.1507,-0.1531,-0.151,-0.1542,-0.1443,-0.1361,-0.1273,-0.1225,-0.1096,-0.1063,-0.1159,-0.1205,-0.1024,-0.099,-0.0898,-0.0994,-0.0856,-0.1224,-0.1242,-0.1267,-0.1348,-0.1325,0,0,0,0,0]},{"header":{"parameterUnit":"m.s-1","parameterCategory":2,"la1":30.2991,"la2":30.254,"lo1":-89.0895,"lo2":-89.0444,"dy":0.0017,"dx":0.0017,"nx":28,"ny":28,"refTime":"2023-09-05T21:00:00:Z","depth":"2","parameterNumber":3,"parameterNumberName":"V-component_of_CURRENTS"},"data":[0,0,0,0,0,0,0,0,0,0,0,0,0,0,0,0,0,0,0,0,0,0,0,0,0,0,0,0,0,0,0,0,0,0,0,0,0,0,0,0,0,0,0,0,0,0,0,0,0,0,0,0,0,0,0,0,0,0,-0.0127,-0.0126,0,-0.0058,-0.0057,-0.0056,0.0009,0.001,0.0011,0.0012,0.0168,0.0171,0.0174,0,0,0,0,0,0,0,0,0,0,0,0,0,-0.0136,-0.0137,-0.0127,-0.0126,-0.0125,-0.0058,-0.0057,-0.0056,0.0009,0.001,0.0012,0.0013,0.0167,0.0171,0.0175,0,0,0,0,0,0,0,0,0,0,0,0,0,-0.0108,-0.0137,-0.0127,-0.0083,-0.0078,-0.0058,-0.0057,-0.0056,0.0009,0.001,0.0012,0.0013,0.0166,0.0171,0.0175,0.0174,0,0,0.019,0.0192,0,0,0,0,0,0,0,0,-0.011,-0.0108,-0.009,-0.0086,-0.008,-0.0029,-0.0003,0.0026,0.0009,-0.0026,0.0012,0.0014,0.011,0.012,0.0125,0.0181,0.0188,0.019,0.0193,0.0195,0.0197,0,0,0,0,0,0,0,-0.0112,-0.011,-0.0102,-0.0089,-0.0083,-0.0043,-0.0038,0.0003,0.0032,-0.0023,-0.0018,-0.0007,0.0114,0.012,0.013,0.019,0.019,0.0194,0.0197,0.0199,0.0321,0.0322,0,0,0,0,0,0,-0.0122,-0.0113,-0.0104,-0.0099,-0.0089,-0.0044,-0.0039,-0.0049,0.003,0.0044,-0.0008,-0.0004,0.0111,0.0124,0.0136,0.0188,0.0195,0.02,0.0203,0.0321,0.0321,0.0322,0,0,0,0,0,0,-0.0123,-0.0123,-0.0107,-0.0101,-0.0096,-0.0046,-0.0058,-0.0048,-0.0023,0.0041,0.0056,0.001,0.0113,0.0129,0.0194,0.0193,0.0202,0.0206,0.0321,0.0321,0.0322,0.0261,0,0,0,0,0,0,-0.0124,-0.0124,-0.0129,-0.0103,-0.0097,-0.0096,-0.0058,-0.0048,-0.0019,-0.0012,0.0061,0.0076,0.0115,0.0187,0.0199,0.0199,0.021,0.032,0.0321,0.0321,0.0263,0.026,0.0257,0,0,0,0,0,-0.0125,-0.0142,-0.0131,-0.0129,-0.0109,-0.0097,-0.0091,-0.0049,-0.002,-0.0019,0.0047,0.0075,0.02,0.0191,0.0206,0.0207,0.032,0.0321,0.0321,0.0264,0.026,0.0257,0,0,0,0,0,0,-0.0148,-0.0136,-0.0123,-0.0136,-0.0117,-0.0085,-0.0075,-0.0047,0.0002,0.0023,0.0085,0.0103,0.016,0.0193,0.0182,0.0245,0.0262,0.0266,0.0214,0.0211,0.0208,0.0178,0.0214,0,0,0,0,0,-0.0158,-0.017,-0.0147,-0.0158,-0.0148,-0.011,-0.0095,-0.0068,-0.0023,0.0,0.0054,0.0116,0.0168,0.0199,0.0248,0.0282,0.031,0.0292,0.0289,0.0286,0.0272,0.0317,0.0316,0.0325,0.0325,0.0325,0,0,-0.017,-0.0164,-0.0171,-0.0163,-0.0142,-0.0142,-0.0098,-0.0077,-0.0067,0.0011,0.0051,0.0113,0.0178,0.022,0.0246,0.025,0.03,0.0287,0.0284,0.0272,0.0318,0.0317,0.0316,0.0325,0.0325,0.0325,0,0,-0.0205,-0.0195,-0.0215,-0.0205,-0.0176,-0.0154,-0.0148,-0.0107,-0.0077,-0.0033,0.0029,0.0088,0.0164,0.0204,0.0236,0.0245,0.0288,0.0266,0.0223,0.0267,0.0266,0.0266,0.0302,0.0306,0.0259,0.0259,0.0259,0,-0.0216,-0.0243,-0.0216,-0.0228,-0.0219,-0.0164,-0.0173,-0.0145,-0.0085,-0.0059,-0.0024,0.0095,0.015,0.0198,0.0203,0.0236,0.0269,0.0229,0.0261,0.0261,0.0262,0.03,0.0304,0.0256,0.0257,0.0257,0.0257,0,-0.0268,-0.0279,-0.0287,-0.0289,-0.0275,-0.0275,-0.0231,-0.0206,-0.0153,-0.0114,-0.0042,0.0039,0.0107,0.0133,0.0173,0.0204,0.0229,0.0255,0.0263,0.0257,0.0298,0.0304,0.0252,0.0253,0.0254,0.0255,0,0,-0.0313,-0.0325,-0.0325,-0.0338,-0.0305,-0.0306,-0.0283,-0.0251,-0.0232,-0.0158,-0.0121,-0.0034,0.0023,0.0062,0.0124,0.0157,0.0194,0.0201,0.0204,0.0224,0.029,0.0313,0.0321,0.0229,0.0229,0.023,0.0317,0,-0.0357,-0.0408,-0.0387,-0.0418,-0.0436,-0.0382,-0.0371,-0.0327,-0.0264,-0.0215,-0.0122,-0.0057,-0.0007,0.0037,0.0077,0.0175,0.0206,0.0167,0.0303,0.0307,0.0318,0.0328,0.0303,0.0379,0.0322,0.0323,0.0324,0,-0.0407,-0.0437,-0.0483,-0.0492,-0.0491,-0.0494,-0.0459,-0.0436,-0.0349,-0.0292,-0.0211,-0.0126,-0.0047,-0.0004,0.0128,0.0106,0.0183,0.0249,0.0254,0.0297,0.034,0.0378,0.0392,0.0334,0.0333,0.0332,0.0332,0,-0.0464,-0.0497,-0.0541,-0.0546,-0.0547,-0.0545,-0.0526,-0.0458,-0.0435,-0.033,-0.0287,-0.0177,-0.0108,-0.0001,0.0142,0.0141,0.0286,0.0306,0.0393,0.0396,0.041,0.0413,0.0381,0.0381,0.0381,0.038,0.038,0,-0.0519,-0.0553,-0.0576,-0.0605,-0.0649,-0.0604,-0.061,-0.057,-0.0493,-0.0453,-0.0327,-0.0265,-0.0104,0.0008,0.0128,0.0282,0.028,0.0383,0.042,0.039,0.039,0.0378,0.0377,0.0384,0.0383,0.0382,0.0382,0,-0.057,-0.0587,-0.065,-0.0673,-0.0682,-0.0707,-0.0685,-0.0681,-0.0588,-0.0526,-0.049,-0.0333,-0.0171,-0.0015,0.017,0.0264,0.041,0.046,0.0412,0.0441,0.0491,0.0486,0.0563,0.0564,0.0566,0.0567,0.0568,0,-0.0603,-0.0642,-0.0715,-0.0765,-0.0778,-0.0801,-0.0815,-0.0741,-0.0718,-0.0558,-0.0533,-0.0361,-0.022,0.0055,0.0249,0.0455,0.0452,0.0535,0.0523,0.0481,0.051,0.0502,0.0495,0.0523,0.0524,0.0524,0.0524,0,-0.0665,-0.0693,-0.0753,-0.0865,-0.0909,-0.0935,-0.0932,-0.0912,-0.0792,-0.0711,-0.0553,-0.0419,-0.0147,0.0091,0.0342,0.0454,0.0501,0.0549,0.0533,0.0476,0.045,0.0476,0.0469,0.0528,0.0527,0.0527,0.0527,0.0527,-0.0711,-0.0779,-0.0872,-0.0976,-0.1027,-0.1032,-0.1005,-0.0961,-0.0881,-0.0694,-0.0584,-0.0356,-0.0135,0.0237,0.0417,0.0567,0.0564,0.0598,0.0595,0.0591,0.0566,0.0544,0.0634,0.0634,0.0635,0.0635,0.0635,0,-0.0771,-0.086,-0.0974,-0.1075,-0.1132,-0.1127,-0.1067,-0.0987,-0.0855,-0.0698,-0.0524,-0.0252,0.0014,0.0232,0.0485,0.0637,0.0615,0.0643,0.0593,0.0589,0.0585,0.0558,0.0625,0.0625,0.0625,0.0626,0,0,-0.0811,-0.0944,-0.1021,-0.1152,-0.1195,-0.1156,-0.1086,-0.0952,-0.0807,-0.06,-0.044,-0.0238,0.0028,0.0209,0.0398,0.0522,0.0509,0.0521,0.0513,0.0427,0.0422,0.0544,0.0495,0,0,0,0,0]}],[{"header":{"parameterUnit":"m.s-1","parameterCategory":2,"la1":30.2991,"la2":30.254,"lo1":-89.0895,"lo2":-89.0444,"dy":0.0017,"dx":0.0017,"nx":28,"ny":28,"refTime":"2023-09-05T21:00:00:Z","depth":"4","parameterNumber":2,"parameterNumberName":"U-component_of_CURRENTS"},"data":[0,0,0,0,0,0,0,0,0,0,0,0,0,0,0,0,0,0,0,0,0,0,0,0,0,0,0,0,0,0,0,0,0,0,0,0,0,0,0,0,0,0,0,0,0,0,0,0,0,0,0,0,0,0,0,0,0,0,-0.0634,-0.0635,0,-0.0677,-0.0677,-0.0678,-0.0718,-0.0719,-0.0719,-0.072,-0.0749,-0.0749,-0.0749,0,0,0,0,0,0,0,0,0,0,0,0,0,-0.0565,-0.0566,-0.0634,-0.0635,-0.0636,-0.0677,-0.0677,-0.0678,-0.0718,-0.0719,-0.072,-0.072,-0.0749,-0.0749,-0.0749,0,0,0,0,0,0,0,0,0,0,0,0,0,-0.0598,-0.0566,-0.0634,-0.0663,-0.0666,-0.0677,-0.0677,-0.0678,-0.0718,-0.0719,-0.072,-0.0721,-0.0749,-0.0749,-0.0749,-0.0728,0,0,-0.0749,-0.0749,0,0,0,0,0,0,0,0,-0.0596,-0.06,-0.0658,-0.0661,-0.0664,-0.0695,-0.0663,-0.0695,-0.0717,-0.0695,-0.072,-0.0721,-0.073,-0.0732,-0.0734,-0.0729,-0.073,-0.0749,-0.0749,-0.0749,-0.0749,0,0,0,0,0,0,0,-0.0593,-0.0598,-0.0649,-0.0659,-0.0663,-0.0666,-0.0671,-0.0669,-0.0704,-0.0697,-0.0701,-0.0709,-0.0732,-0.0734,-0.0735,-0.0731,-0.0749,-0.0749,-0.0749,-0.0749,-0.0778,-0.0779,0,0,0,0,0,0,-0.0593,-0.0596,-0.0648,-0.065,-0.0635,-0.0666,-0.0673,-0.0682,-0.0704,-0.071,-0.0708,-0.0711,-0.0733,-0.0735,-0.0736,-0.0787,-0.0749,-0.0749,-0.0749,-0.0778,-0.0779,-0.0779,0,0,0,0,0,0,-0.0592,-0.0597,-0.0646,-0.0626,-0.0633,-0.0667,-0.0677,-0.0683,-0.0705,-0.0713,-0.0718,-0.0728,-0.0734,-0.0736,-0.075,-0.0785,-0.0749,-0.075,-0.0777,-0.0778,-0.0779,-0.084,0,0,0,0,0,0,-0.0589,-0.0596,-0.0607,-0.0626,-0.0634,-0.0664,-0.0676,-0.0683,-0.0708,-0.0713,-0.0731,-0.0734,-0.0735,-0.0749,-0.075,-0.0785,-0.075,-0.0776,-0.0777,-0.0779,-0.0837,-0.0843,-0.0848,0,0,0,0,0,-0.0587,-0.0601,-0.0608,-0.0614,-0.0647,-0.0665,-0.0669,-0.0694,-0.0708,-0.0718,-0.0731,-0.0734,-0.0759,-0.075,-0.075,-0.0786,-0.0775,-0.0777,-0.0778,-0.0834,-0.0841,-0.0848,0,0,0,0,0,0,-0.0571,-0.0607,-0.0615,-0.0637,-0.0654,-0.0673,-0.069,-0.0702,-0.0719,-0.0728,-0.0735,-0.0738,-0.0761,-0.0759,-0.0749,-0.0797,-0.0771,-0.0772,-0.0813,-0.082,-0.0825,-0.0829,-0.075,0,0,0,0,0,-0.0573,-0.0593,-0.0619,-0.0634,-0.0649,-0.0669,-0.0682,-0.0697,-0.0713,-0.0724,-0.0741,-0.0755,-0.0763,-0.078,-0.078,-0.0804,-0.0812,-0.0829,-0.0835,-0.0839,-0.0842,-0.0863,-0.0871,-0.0784,-0.0784,-0.0784,0,0,-0.0568,-0.059,-0.0601,-0.0632,-0.065,-0.0669,-0.068,-0.0705,-0.0723,-0.0722,-0.0759,-0.0766,-0.0769,-0.0798,-0.081,-0.0807,-0.0875,-0.0841,-0.0846,-0.0845,-0.0865,-0.0874,-0.0881,-0.0786,-0.0785,-0.0785,0,0,-0.0568,-0.0593,-0.0614,-0.0632,-0.0664,-0.0676,-0.0687,-0.0718,-0.0742,-0.0769,-0.0774,-0.08,-0.0823,-0.0836,-0.0843,-0.0875,-0.0892,-0.0887,-0.0934,-0.0955,-0.0963,-0.0969,-0.1024,-0.1035,-0.0904,-0.0904,-0.0904,0,-0.0564,-0.059,-0.0619,-0.0643,-0.0667,-0.0682,-0.0708,-0.0723,-0.0754,-0.0786,-0.079,-0.0837,-0.0841,-0.0875,-0.0897,-0.0889,-0.0917,-0.0913,-0.0964,-0.097,-0.0976,-0.103,-0.1041,-0.0907,-0.0907,-0.0907,-0.0906,0,-0.0572,-0.0603,-0.0617,-0.0655,-0.0683,-0.0702,-0.0736,-0.0756,-0.079,-0.0826,-0.0877,-0.0881,-0.0919,-0.0928,-0.0928,-0.0977,-0.0991,-0.0959,-0.095,-0.0988,-0.1043,-0.1054,-0.0912,-0.0911,-0.091,-0.0909,0,0,-0.0538,-0.061,-0.0617,-0.0653,-0.0695,-0.0722,-0.0749,-0.0798,-0.0827,-0.0876,-0.0921,-0.0963,-0.0993,-0.1,-0.1003,-0.1029,-0.1105,-0.1028,-0.1027,-0.1089,-0.1192,-0.1094,-0.1096,-0.109,-0.1092,-0.1093,-0.1227,0,-0.0536,-0.0583,-0.0629,-0.0682,-0.071,-0.075,-0.0775,-0.0824,-0.0866,-0.0907,-0.0948,-0.099,-0.1013,-0.1033,-0.1068,-0.1078,-0.1131,-0.1074,-0.1139,-0.1142,-0.1054,-0.1102,-0.1097,-0.1235,-0.1237,-0.1239,-0.124,0,-0.0531,-0.0563,-0.0614,-0.0705,-0.0727,-0.076,-0.082,-0.0857,-0.0912,-0.0959,-0.1023,-0.1035,-0.11,-0.1081,-0.118,-0.115,-0.119,-0.12,-0.1205,-0.1093,-0.1061,-0.1179,-0.1259,-0.1258,-0.1256,-0.1255,-0.1254,0,-0.0486,-0.057,-0.0615,-0.064,-0.0721,-0.0763,-0.0816,-0.0877,-0.0917,-0.0996,-0.1032,-0.1102,-0.115,-0.1188,-0.1248,-0.122,-0.1336,-0.129,-0.125,-0.1246,-0.1269,-0.126,-0.1358,-0.1358,-0.1357,-0.1357,-0.1357,0,-0.0463,-0.051,-0.0601,-0.0619,-0.0674,-0.0762,-0.0815,-0.0881,-0.0947,-0.1039,-0.1075,-0.1136,-0.118,-0.1241,-0.1271,-0.1314,-0.1376,-0.1271,-0.1267,-0.1296,-0.1289,-0.1279,-0.1268,-0.1362,-0.1361,-0.136,-0.1359,0,-0.0421,-0.0471,-0.0529,-0.062,-0.0653,-0.0703,-0.0811,-0.084,-0.0945,-0.1047,-0.1079,-0.1185,-0.1281,-0.1305,-0.1382,-0.1355,-0.1378,-0.1383,-0.146,-0.1456,-0.1273,-0.1264,-0.1328,-0.1326,-0.1324,-0.1322,-0.132,0,-0.0404,-0.0422,-0.0513,-0.0528,-0.0578,-0.0652,-0.0682,-0.0815,-0.0887,-0.1101,-0.116,-0.1258,-0.1326,-0.136,-0.1394,-0.1413,-0.1394,-0.141,-0.1288,-0.1277,-0.1267,-0.1261,-0.1255,-0.1317,-0.1316,-0.1316,-0.1315,0,-0.0363,-0.0398,-0.0434,-0.045,-0.0497,-0.0574,-0.0681,-0.0734,-0.0942,-0.1012,-0.1197,-0.123,-0.1327,-0.134,-0.1357,-0.1375,-0.1378,-0.1386,-0.1389,-0.1275,-0.1263,-0.1255,-0.1251,-0.1308,-0.1309,-0.131,-0.131,0,-0.0327,-0.0333,-0.0357,-0.0379,-0.0425,-0.0529,-0.0598,-0.073,-0.0824,-0.1087,-0.1161,-0.1282,-0.1374,-0.133,-0.137,-0.1337,-0.1289,-0.1233,-0.1243,-0.1251,-0.1148,-0.1117,-0.1126,0,0,0,0,0,-0.0278,-0.0279,-0.0282,-0.0327,-0.0372,-0.043,-0.06,-0.069,-0.0896,-0.0995,-0.1084,-0.1176,-0.1224,-0.1264,-0.1203,-0.1295,-0.1275,-0.1218,-0.121,-0.1267,-0.1275,-0.1153,0,0,0,0,0,0,-0.0241,-0.0253,-0.0254,-0.0271,-0.0299,-0.0393,-0.0522,-0.0684,-0.0757,-0.0946,-0.0956,-0.1062,-0.1086,-0.121,-0.1156,-0.1165,-0.1131,-0.1267,-0.1264,-0.1262,-0.127,-0.1276,-0.1153,0,0,0,0,0]},{"header":{"parameterUnit":"m.s-1","parameterCategory":2,"la1":30.2991,"la2":30.254,"lo1":-89.0895,"lo2":-89.0444,"dy":0.0017,"dx":0.0017,"nx":28,"ny":28,"refTime":"2023-09-05T21:00:00:Z","depth":"4","parameterNumber":3,"parameterNumberName":"V-component_of_CURRENTS"},"data":[0,0,0,0,0,0,0,0,0,0,0,0,0,0,0,0,0,0,0,0,0,0,0,0,0,0,0,0,0,0,0,0,0,0,0,0,0,0,0,0,0,0,0,0,0,0,0,0,0,0,0,0,0,0,0,0,0,0,-0.0186,-0.0186,0,-0.0167,-0.0167,-0.0166,-0.0156,-0.0156,-0.0156,-0.0156,-0.0095,-0.0093,-0.0091,0,0,0,0,0,0,0,0,0,0,0,0,0,-0.016,-0.0161,-0.0186,-0.0186,-0.0186,-0.0167,-0.0167,-0.0166,-0.0156,-0.0156,-0.0156,-0.0156,-0.0095,-0.0093,-0.0091,0,0,0,0,0,0,0,0,0,0,0,0,0,-0.0158,-0.0161,-0.0186,-0.018,-0.0179,-0.0167,-0.0167,-0.0166,-0.0156,-0.0156,-0.0156,-0.0156,-0.0096,-0.0094,-0.0091,-0.0071,0,0,-0.0083,-0.0082,0,0,0,0,0,0,0,0,-0.0158,-0.0159,-0.0181,-0.018,-0.018,-0.0165,-0.0135,-0.0133,-0.0156,-0.0163,-0.0156,-0.0156,-0.0115,-0.0111,-0.0105,-0.0068,-0.0065,-0.0083,-0.0081,-0.008,-0.0079,0,0,0,0,0,0,0,-0.0158,-0.0159,-0.0177,-0.0181,-0.018,-0.016,-0.016,-0.0134,-0.0136,-0.0162,-0.0162,-0.0162,-0.0115,-0.0108,-0.0104,-0.0064,-0.0083,-0.008,-0.0079,-0.0078,-0.0007,-0.0007,0,0,0,0,0,0,-0.0167,-0.016,-0.0178,-0.0177,-0.0171,-0.016,-0.016,-0.0168,-0.0137,-0.0134,-0.0162,-0.0162,-0.0112,-0.0107,-0.0102,-0.0071,-0.008,-0.0077,-0.0076,-0.0008,-0.0007,-0.0007,0,0,0,0,0,0,-0.0167,-0.0169,-0.0179,-0.0168,-0.0168,-0.0161,-0.017,-0.0168,-0.0166,-0.0138,-0.0133,-0.0163,-0.0112,-0.0105,-0.0081,-0.0068,-0.0076,-0.0074,-0.0008,-0.0007,-0.0007,-0.0012,0,0,0,0,0,0,-0.0166,-0.0169,-0.0177,-0.0169,-0.0169,-0.0171,-0.017,-0.0168,-0.0167,-0.0166,-0.0137,-0.0131,-0.0112,-0.0085,-0.0078,-0.0065,-0.0072,-0.0008,-0.0008,-0.0007,-0.0012,-0.0012,-0.0011,0,0,0,0,0,-0.0165,-0.0174,-0.0178,-0.018,-0.0181,-0.0171,-0.0169,-0.0163,-0.0167,-0.0163,-0.0145,-0.0133,-0.0076,-0.0082,-0.0075,-0.006,-0.0009,-0.0008,-0.0007,-0.0012,-0.0012,-0.0011,0,0,0,0,0,0,-0.0161,-0.0174,-0.0178,-0.0189,-0.0182,-0.017,-0.0169,-0.0166,-0.015,-0.0151,-0.0127,-0.012,-0.0097,-0.0078,-0.0086,-0.0039,-0.0041,-0.0038,-0.0047,-0.0046,-0.0046,-0.004,-0.007,0,0,0,0,0,-0.0167,-0.0181,-0.018,-0.0188,-0.0188,-0.018,-0.0177,-0.0173,-0.0159,-0.0153,-0.0134,-0.0111,-0.0087,-0.0068,-0.0048,-0.0018,0.0003,-0.0004,-0.0004,-0.0004,0.0006,0.0048,0.0053,-0.0005,-0.0005,-0.0005,0,0,-0.0168,-0.0176,-0.0184,-0.0188,-0.0184,-0.0184,-0.0178,-0.0175,-0.0171,-0.0147,-0.0135,-0.0113,-0.0082,-0.0052,-0.0039,-0.0034,0.002,-0.0003,-0.0003,0.0007,0.0049,0.0055,0.006,-0.0004,-0.0004,-0.0004,0,0,-0.0173,-0.0185,-0.0197,-0.0193,-0.0192,-0.0188,-0.019,-0.018,-0.0173,-0.0154,-0.014,-0.0108,-0.0075,-0.0044,-0.0025,-0.0009,0.0014,-0.0006,0.0014,0.0053,0.0059,0.0064,0.0084,0.0091,0.0004,0.0004,0.0004,0,-0.0173,-0.0191,-0.0194,-0.0199,-0.0202,-0.0193,-0.02,-0.0186,-0.0168,-0.0157,-0.0152,-0.0096,-0.0067,-0.0026,-0.0012,-0.0006,0.0013,0.0009,0.0055,0.006,0.0066,0.0085,0.0093,0.0003,0.0003,0.0003,0.0003,0,-0.0184,-0.0197,-0.0201,-0.0212,-0.0213,-0.0214,-0.0205,-0.0201,-0.0192,-0.0168,-0.0132,-0.009,-0.0049,-0.0036,-0.001,0.004,0.0039,0.0042,0.0054,0.0071,0.0091,0.0099,0.0003,0.0003,0.0003,0.0003,0,0,-0.0187,-0.0208,-0.0209,-0.0228,-0.0223,-0.0232,-0.0225,-0.0212,-0.0206,-0.0167,-0.0149,-0.0081,-0.0046,-0.0022,0.001,0.0057,0.0115,0.0075,0.0077,0.0095,0.0193,0.0178,0.0185,0.0128,0.013,0.0131,0.0187,0,-0.0194,-0.0217,-0.0223,-0.0248,-0.0262,-0.026,-0.0255,-0.0239,-0.0213,-0.0188,-0.0128,-0.0093,-0.0044,-0.0024,0.0037,0.0089,0.0138,0.0099,0.0174,0.0176,0.0161,0.0195,0.0137,0.0193,0.0195,0.0197,0.0198,0,-0.0202,-0.022,-0.0246,-0.0283,-0.0289,-0.0302,-0.031,-0.03,-0.0249,-0.0222,-0.016,-0.0115,-0.0032,-0.0007,0.0119,0.0092,0.0154,0.0193,0.0196,0.0193,0.0177,0.0176,0.0213,0.0211,0.021,0.0209,0.0208,0,-0.021,-0.0244,-0.0273,-0.0281,-0.0306,-0.0327,-0.0339,-0.0307,-0.0292,-0.024,-0.0213,-0.012,-0.0068,0.0022,0.0136,0.013,0.0259,0.0252,0.0291,0.0289,0.0287,0.0282,0.0341,0.0341,0.0341,0.0341,0.0341,0,-0.0217,-0.0246,-0.0288,-0.0301,-0.0351,-0.0353,-0.0377,-0.0369,-0.0327,-0.0301,-0.0221,-0.018,-0.0052,0.0039,0.0128,0.0244,0.0261,0.0307,0.0313,0.0281,0.0274,0.0292,0.0286,0.0343,0.0343,0.0342,0.0342,0,-0.0222,-0.024,-0.0287,-0.0331,-0.0357,-0.0392,-0.0423,-0.0416,-0.0372,-0.0341,-0.0322,-0.0206,-0.009,0.0029,0.0169,0.0234,0.033,0.0365,0.0317,0.0317,0.0331,0.0323,0.0404,0.0404,0.0404,0.0404,0.0404,0,-0.023,-0.0245,-0.0317,-0.0361,-0.0391,-0.0442,-0.046,-0.0443,-0.0418,-0.0357,-0.0327,-0.022,-0.0139,0.0055,0.0172,0.0324,0.0347,0.0388,0.0375,0.0344,0.0342,0.0334,0.0327,0.0405,0.0405,0.0405,0.0405,0,-0.024,-0.0261,-0.0295,-0.0379,-0.043,-0.048,-0.0501,-0.0496,-0.0454,-0.0414,-0.0323,-0.0228,-0.0098,0.0047,0.0175,0.0282,0.0354,0.039,0.039,0.0378,0.0346,0.0342,0.0335,0.0405,0.0405,0.0405,0.0405,0,-0.0249,-0.0273,-0.0315,-0.0391,-0.0457,-0.0499,-0.0525,-0.0494,-0.0467,-0.0386,-0.0364,-0.0232,-0.0143,0.0026,0.0138,0.0247,0.0267,0.0289,0.0295,0.0296,0.0249,0.0191,0.0221,0,0,0,0,0,-0.0249,-0.0268,-0.0332,-0.0406,-0.0469,-0.0507,-0.0529,-0.053,-0.0499,-0.0433,-0.0395,-0.0279,-0.0107,-0.002,0.0087,0.0124,0.0272,0.025,0.0298,0.0407,0.0407,0.0369,0,0,0,0,0,0,-0.0248,-0.0297,-0.0314,-0.0391,-0.0449,-0.0503,-0.0528,-0.0519,-0.0468,-0.0429,-0.0323,-0.026,-0.0076,-0.016,0.0091,0.0124,0.0165,0.0344,0.0346,0.0408,0.0407,0.0407,0.0368,0,0,0,0,0]}]]